Regional Weather Roundup
Issued by NWS Charleston, SC

Current Version | Previous Version | Graphics & Text | Print | Product List | Glossary On
Versions: 1 2 3 4 5 6 7 8 9 10 11 12 13 14 15 16 17 18 19 20 21 22 23 24 25 26 27 28 29 30 31 32 33 34 35 36 37 38 39 40 41 42 43 44 45 46 47 48 49 50
000
ASUS42 KCHS 260227
RWRCHS

REGIONAL WEATHER ROUNDUP
NATIONAL WEATHER SERVICE CHARLESTON SC
1000 PM EDT TUE APR 25 2017

NOTE: "FAIR" INDICATES FEW OR NO CLOUDS BELOW 12,000 FEET WITH NO
SIGNIFICANT WEATHER AND/OR OBSTRUCTIONS TO VISIBILITY.

NOT ALL STATIONS ARE QUALITY CONTROLLED. USE DATA WITH CAUTION...
ESPECIALLY DEWPOINT OBSERVATIONS.

SCZ027-030-031-034>040-042>050-260300-
...SOUTHEAST SOUTH CAROLINA...

CITY           SKY/WX    TMP DP  RH WIND       PRES   REMARKS
N CHARLESTON   PTCLDY    67  61  81 CALM      29.77R
WATERFRONT PRK   N/A     69  65  86 VRB3      29.75R
JOHNS ISLAND   FAIR      68  64  88 CALM      29.78R
PINOPOLIS        N/A     70  63  78 VRB3      29.67R
MONCKS CORNER  FAIR      61  59  94 CALM      29.78R
SUMMERVILLE    FAIR      63  61  94 CALM      29.79R
BEAUFORT MCAS  CLOUDY    72  65  78 SE3       29.78R
BEAUFORT ARPT  CLOUDY    70  64  83 CALM      29.78R
HILTON HEAD IS CLEAR     70  66  88 CALM      29.79R
WALTERBORO     CLEAR     63  61  94 CALM      29.79R
ALLENDALE      FAIR      64  63  94 CALM      29.76R

...SOUTHERN MIDLANDS AND PEE DEE...

CITY           SKY/WX    TMP DP  RH WIND       PRES   REMARKS
GEORGETOWN     FAIR      61  59  94 CALM      29.79R
KINGSTREE      FAIR      61  59  94 CALM      29.78R
ORANGEBURG     CLEAR     63  61  93 CALM      29.76R
BARNWELL       FAIR      64  63  94 CALM      29.77R
AIKEN          FAIR      61  59  94 CALM      29.80R
MANNING        FAIR      59  57  94 SW18      29.77R
COLUMBIA       CLEAR     67  60  78 SE3       29.76R
SUMTER         CLOUDY    61  58  91 CALM      29.75R
FLORENCE       CLOUDY    63  61  93 W3        29.76R
MYRTLE BEACH   NOT AVBL
N MYRTLE BEACH CLOUDY    63  60  90 W5        29.76R

$$

GAZ063-065-086>088-099>101-113>116-118-119-134>141-150-260300-
...SOUTHEAST GEORGIA...

CITY           SKY/WX    TMP DP  RH WIND       PRES   REMARKS
SAVANNAH ARPT  MOCLDY    75  59  57 E3        29.77R
HUNTER AAF     CLOUDY    75  64  67 CALM      29.75R
FORT STEWART   CLOUDY    68  62  80 CALM      29.75R
STATESBORO     CLEAR     65  65  97 CALM      29.78R
SYLVANIA       CLEAR    N/A N/A N/A CALM      29.78R
CLAXTON        FAIR     N/A N/A N/A CALM      29.78R

...CSRA...CENTRAL AND FAR SOUTHEAST GEORGIA...

CITY           SKY/WX    TMP DP  RH WIND       PRES   REMARKS
THOMSON        CLEAR     63  61  95 CALM      29.81R
AUGUSTA-BUSH   CLEAR     63  60  90 CALM      29.74R
AUGUSTA-DANIEL CLEAR     72  58  61 CALM      29.76R
SWAINSBORO     FAIR      64  61  88 E5        29.78R
VIDALIA        CLEAR     70  61  73 CALM      29.78R
EASTMAN        FAIR      66  52  60 CALM      29.80R
HAZLEHURST     FAIR      68  63  84 CALM      29.78R
ALMA           CLEAR     63  60  90 CALM      29.77R
WAYCROSS       CLEAR     71  60  67 SW3       29.79R
JESUP          FAIR      64  55  72 CALM      29.79R
BAXLEY         FAIR      64  64 100 CALM      29.78R
BRUNSWICK      CLEAR     66  61  82 CALM      29.79R
SAINT SIMONS   PTCLDY    74  61  63 SW5       29.77R

$$

SCZ027-028-034-036>038-045-046-048>050-GAZ119-141-260300-
...LAKE AND SUPPLEMENTAL COASTAL OBSERVATIONS...

STATION/POSITION TIME  TEMP    WIND        PRES    WAVE   SWELL
                       AIR SEA DIR/SP/G            HT/PER HT/PER/DIR
                 (UTC) (F)     (DEG/KT/KT) (MB)    (FT/S) (FT/S/D)
WINYAH BAY       0145   65     280/  2     1008.0R
LAKE MURRAY      0150   65      CALM  /  1 1007.5R
ACE BASIN NERRS  0145   66        CALM     1008.0R
FORT PULASKI     0200   73 73  170/  3/  4 1008.3
SAPELO ISLAND    0130   70        CALM     1008.0R

$$

ANZ835-935-AMZ111-154-330-350-352-354-370-450-454-472-260300-
...C-MAN AND BUOY OBSERVATIONS...

STATION/POSITION TIME  TEMP    WIND        PRES    WAVE   SWELL
                       AIR SEA DIR/SP/G            HT/PER HT/PER/DIR
                 (UTC) (F)     (DEG/KT/KT) (MB)    (FT/S) (FT/S/D)
BUOY 41004       0200   71 73  220/ 12/ 14 1007.8
BUOY 41008       0150   73 71  170/  8/ 10 1007.9R   2/10   2/ 90/10
FOLLY BEACH CMAN 0200   70     240/  5/  6 1008.7R
CAPERS NEARSHORE 0208   73 71  260/ 10/ 16 1007.9R
FRIPP NEARSHORE  0208   72 72  210/ 10/ 12 1008.0R


STATION/POSITION TIME  TEMP    WIND        PRES    WAVE   SWELL
                       AIR SEA DIR/SP/G            HT/PER HT/PER/DIR
                 (UTC) (F)     (DEG/KT/KT) (MB)    (FT/S) (FT/S/D)
5E ST. MARYS GA  0200      73                N/A     2/11   2/100/11
FRYING PAN BUOY  0210   69 75  280/ 17/ 21 1007.3
BUOY 41025       0150   71 78  250/ 16/ 19 1004.5R   8/ 9   7/140/ 9
CAPE LOOKOUT NC  0200   68     270/ 18/ 22 1005.1R
BUOY 41002       0150   73 76  230/ 19/ 23 1008.5R   9/ 7   3/ 80/15
BUOY 41010       0210   73 78  190/ 10/ 14 1010.8
ST AUGUSTINE FL  0200   72 74  240/  6/  9 1010.4R


$$



USA.gov is the U.S. government's official web portal to all federal, state and local government web resources and services.